Location: Skalnate Pleso
(49.1889°N, 20.2450°E)
Time: 21:41:10
(UTC+01:00)

Cosmos 1269 Rocket - Visible Passes

Search period start: 21 February 2020 00:00
Search period end: 02 March 2020 00:00
Orbit: 773 x 779 km, 74.1° (Epoch: 21 February)

Date Brightness Start Highest point End Pass type
(mag) Time Alt. Az. Time Alt. Az. Time Alt. Az.
21 Feb 5.9 03:12:18 23° N 03:12:18 23° N 03:14:18 10° NNE visible
21 Feb 6.0 04:52:44 12° NW 04:52:44 12° NW 04:54:45 10° NNW visible
22 Feb 6.3 02:38:16 19° NNE 02:38:16 19° NNE 02:39:40 10° NNE visible
22 Feb 5.9 04:18:41 16° NNW 04:18:41 16° NNW 04:20:51 10° N visible
23 Feb 6.7 02:04:12 14° NNE 02:04:12 14° NNE 02:04:56 10° NNE visible
23 Feb 6.0 03:44:37 18° NNW 03:44:37 18° NNW 03:46:36 10° N visible
24 Feb 6.1 03:10:33 18° N 03:10:33 18° N 03:12:11 10° N visible
25 Feb 6.4 02:36:27 17° N 02:36:27 17° N 02:37:40 10° NNE visible
25 Feb 6.3 04:16:52 11° NNW 04:16:52 11° NNW 04:17:39 10° NNW visible
26 Feb 6.7 02:02:20 14° NNE 02:02:20 14° NNE 02:03:04 10° NNE visible
26 Feb 6.2 03:42:45 13° NNW 03:42:45 13° NNW 03:44:03 10° N visible
27 Feb 7.0 01:28:12 11° NNE 01:28:12 11° NNE 01:28:22 10° NNE visible
27 Feb 6.3 03:08:37 15° NNW 03:08:37 15° NNW 03:09:53 10° N visible
28 Feb 6.5 02:34:28 15° N 02:34:28 15° N 02:35:31 10° N visible
29 Feb 6.7 02:00:18 14° N 02:00:18 14° N 02:01:02 10° NNE visible
01 Mar 6.9 01:26:08 12° NNE 01:26:08 12° NNE 01:26:27 10° NNE visible
01 Mar 6.5 03:06:33 11° NNW 03:06:33 11° NNW 03:07:11 10° N visible
